Location: Unspecified
(0.0000°N, 0.0000°E)
Time: 20:10:49
(UTC+00:00)

Tiros 1 despin weight - Pass Details

Date: 26 May 2022
Orbit: 591 x 639 km, 48.2° (Epoch: 25 June)

Event Time Altitude Azimuth Distance (km) Brightness Sun altitude
Rises 01:50:34 0° 351° (N) 2,805 - -55.2°
Reaches altitude 10° 01:53:44 10° 16° (NNE) 1,912 - -54.5°
Maximum altitude 01:56:12 15° 50° (NE) 1,634 - -54.1°
Drops below altitude 10° 01:58:40 10° 85° (E) 1,928 - -53.6°
Sets 02:01:53 0° 108° (ESE) 2,843 - -52.9°
